EW8053 Weather Reports


Display with metric or nautical units.
time (UTC)temp
F
wind
direction
speed
MPH
gust
MPH
rain 1hr
in
rain 24hr
in
rain mn
in
humidity
%
barometer
mb
20260508204556 64 264 2.0 5.0 0.00 0.00 0.00 48 1010.1
20260508203115 65 226 2.0 10.0 0.00 0.00 0.00 47 1010.3
20260508201557 65 276 2.0 10.0 0.00 0.00 0.00 46 1010.4
20260508200100 65 259 3.0 14.0 0.00 0.00 0.00 44 1010.6
20260508194601 65 312 4.0 9.0 0.00 0.00 0.00 45 1010.7
20260508193135 65 287 3.0 8.0 0.00 0.00 0.00 46 1010.9
20260508191601 65 243 4.0 9.0 0.00 0.00 0.00 45 1011.2
20260508190107 65 179 3.0 11.0 0.00 0.00 0.00 48 1011.3
20260508184635 65 141 3.0 10.0 0.00 0.00 0.00 47 1011.4
20260508183114 65 160 4.0 13.0 0.00 0.00 0.00 46 1011.4
20260508181601 65 188 4.0 11.0 0.00 0.00 0.00 46 1011.7
20260508180105 67 279 2.0 9.0 0.00 0.00 0.00 46 1011.7
20260508174617 67 186 4.0 12.0 0.00 0.00 0.00 45 1012.1
20260508173118 66 241 2.0 9.0 0.00 0.00 0.00 49 1012.3
20260508171628 65 280 4.0 9.0 0.00 0.00 0.00 49 1012.7
20260508164604 62 180 3.0 8.0 0.00 0.00 0.00 52 1013.3
20260508163101 63 280 2.0 6.0 0.00 0.00 0.00 51 1013.4
20260508161603 64 250 3.0 10.0 0.00 0.00 0.00 48 1013.4
20260508154600 62 165 2.0 10.0 0.00 0.00 0.00 51 1013.7
20260508153101 62 244 3.0 7.0 0.00 0.00 0.00 51 1013.7
20260508151601 62 319 3.0 9.0 0.00 0.00 0.00 53 1013.7
20260508150059 61 249 2.0 8.0 0.00 0.00 0.00 55 1013.8
20260508144601 58 293 1.0 5.0 0.00 0.00 0.00 59 1014.1
20260508143103 57 309 2.0 6.0 0.00 0.00 0.00 57 1014.3
20260508141601 56 289 1.0 5.0 0.00 0.00 0.00 60 1014.3
20260508140111 54 237 2.0 7.0 0.00 0.00 0.00 60 1014.6
20260508134623 53 220 1.0 6.0 0.00 0.00 0.00 63 1014.6
20260508133113 52 264 2.0 4.0 0.00 0.00 0.00 64 1014.5
20260508131603 51 147 2.0 5.0 0.00 0.00 0.00 64 1014.5
20260508130103 51 255 2.0 6.0 0.00 0.00 0.00 66 1014.5
20260508124559 50 181 1.0 3.0 0.00 0.00 0.00 66 1014.4
20260508123105 50 149 0.0 4.0 0.00 0.00 0.00 66 1014.4
20260508121602 48 150 1.0 4.0 0.00 0.00 0.00 69 1014.3
20260508114607 46 0 0.0 0.0 0.00 0.00 0.00 74 1014.2
20260508113108 44 0 0.0 0.0 0.00 0.00 0.00 75 1013.9
20260508111602 44 0 0.0 0.0 0.00 0.00 0.00 73 1013.7
20260508110105 45 0 0.0 1.0 0.00 0.00 0.00 71 1013.7
20260508104600 45 212 0.0 3.0 0.00 0.00 0.00 71 1013.6
20260508103100 45 178 0.0 1.0 0.00 0.00 0.00 71 1013.4
20260508101600 45 0 0.0 2.0 0.00 0.00 0.00 70 1013.4
20260508100057 45 0 0.0 3.0 0.00 0.00 0.00 70 1013.4
20260508094615 45 160 0.0 2.0 0.00 0.00 0.00 70 1013.4
20260508093058 44 190 0.0 1.0 0.00 0.00 0.00 70 1013.5
20260508091617 45 0 0.0 3.0 0.00 0.00 0.00 68 1013.4
20260508090112 45 184 0.0 2.0 0.00 0.00 0.00 69 1013.5
20260508084558 45 155 0.0 1.0 0.00 0.00 0.00 69 1013.6
20260508083106 45 173 0.0 1.0 0.00 0.00 0.00 68 1013.6
20260508081606 45 0 0.0 1.0 0.00 0.00 0.00 68 1013.6
20260508080058 46 0 0.0 0.0 0.00 0.00 0.00 68 1013.6
20260508074600 46 0 0.0 0.0 0.00 0.00 0.00 66 1013.5
20260508073105 47 0 0.0 1.0 0.00 0.00 0.00 64 1013.7
20260508071559 48 165 0.0 3.0 0.00 0.00 0.00 63 1013.8
20260508070101 48 192 1.0 4.0 0.00 0.00 0.00 62 1013.8
20260508064600 48 207 0.0 3.0 0.00 0.00 0.00 63 1013.9
20260508063139 49 164 0.0 2.0 0.00 0.00 0.00 65 1014.1
20260508061559 50 0 0.0 4.0 0.00 0.00 0.00 61 1014.3
20260508060058 50 226 1.0 3.0 0.00 0.00 0.00 60 1013.7
20260508054600 49 0 1.0 5.0 0.00 0.00 0.00 61 1013.8
20260508053102 49 0 0.0 2.0 0.00 0.00 0.00 62 1013.8
20260508051618 49 0 0.0 1.0 0.00 0.00 0.00 63 1013.9
20260508050058 48 0 0.0 2.0 0.00 0.00 0.00 65 1013.9
20260508044558 48 0 0.0 1.0 0.00 0.00 0.00 68 1014.0
20260508043058 48 0 0.0 0.0 0.00 0.00 0.00 68 1014.0
20260508041558 48 0 0.0 0.0 0.00 0.00 0.00 67 1014.1
20260508034559 48 0 0.0 0.0 0.00 0.00 0.00 68 1014.2
20260508033058 48 0 0.0 0.0 0.00 0.00 0.00 66 1014.2
20260508031605 48 0 0.0 0.0 0.00 0.00 0.00 63 1014.2
20260508030108 47 0 0.0 0.0 0.00 0.00 0.00 64 1014.1
20260508024602 47 0 0.0 0.0 0.00 0.00 0.00 66 1014.1
20260508023100 46 0 0.0 0.0 0.00 0.00 0.00 70 1014.0
20260508021558 45 0 0.0 0.0 0.00 0.00 0.00 73 1014.1
20260508020106 46 0 0.0 0.0 0.00 0.00 0.00 72 1013.9
20260508014558 47 0 0.0 0.0 0.00 0.00 0.00 70 1014.1
20260508013100 47 0 0.0 0.0 0.00 0.00 0.00 68 1014.0
20260508011600 47 0 0.0 0.0 0.00 0.00 0.00 67 1014.1
20260508010145 48 0 0.0 0.0 0.00 0.00 0.00 64 1014.0
20260508010111 48 0 0.0 0.0 0.00 0.00 0.00 64 1014.0
20260508004557 49 0 0.0 0.0 0.00 0.00 0.00 59 1014.0
20260508003113 51 0 0.0 0.0 0.00 0.00 0.00 53 1013.9
20260508001602 53 0 0.0 0.0 0.00 0.00 0.00 50 1013.9
20260508000057 54 0 0.0 2.0 0.00 0.00 0.00 47 1013.7
20260507234600 55 214 0.0 4.0 0.00 0.00 0.00 44 1013.7
20260507233057 58 0 1.0 4.0 0.00 0.00 0.00 41 1013.5
20260507231559 57 221 0.0 3.0 0.00 0.00 0.00 42 1013.6
20260507230112 56 287 2.0 7.0 0.00 0.00 0.00 40 1013.7
20260507224558 59 145 2.0 6.0 0.00 0.00 0.00 38 1013.5
20260507223205 59 306 2.0 9.0 0.00 0.00 0.00 40 1013.7
20260507221559 59 0 2.0 6.0 0.00 0.00 0.00 41 1013.9
20260507220059 59 0 2.0 8.0 0.00 0.00 0.00 42 1014.0
20260507214600 58 290 4.0 12.0 0.00 0.00 0.00 41 1014.1
20260507213139 58 319 4.0 8.0 0.00 0.00 0.00 41 1014.0
20260507211559 58 297 2.0 6.0 0.00 0.00 0.00 41 1013.9
20260507210103 59 288 2.0 12.0 0.00 0.00 0.00 43 1013.8